DL9GRB-13 Weather Reports


time (UTC)temp
F
wind
direction
speed
knots
gust
knots
rain 1hr
in
rain 24hr
in
rain mn
in
humidity
%
barometer
mb
20260902024655 57 89 4.3 5.2 0.00 0.00 0.00 94 1016.3
20260902024355 57 100 4.3 6.1 0.00 0.00 0.00 94 1016.4
20260902024055 57 53 0.0 15.6 0.00 0.00 0.00 94 1016.4
20260902023755 57 169 0.0 7.8 0.00 0.00 0.00 94 1016.4
20260902023455 57 100 3.5 9.6 0.00 0.00 0.00 94 1016.2
20260902023155 57 315 0.0 5.2 0.00 0.00 0.00 94 1016.3
20260902022855 57 74 4.3 7.0 0.00 0.00 0.00 94 1016.4
20260902022555 57 115 4.3 8.7 0.00 0.00 0.00 94 1016.2
20260902022255 57 81 3.5 9.6 0.00 0.00 0.00 94 1016.3
20260902021955 57 204 10.4 10.4 0.00 0.00 0.00 94 1016.4
20260902021655 57 184 3.5 9.6 0.00 0.00 0.00 94 1016.4
20260902021355 57 38 0.0 4.3 0.00 0.00 0.00 94 1016.2
20260902021055 57 52 0.0 5.2 0.00 0.00 0.00 94 1016.1
20260902020755 57 55 0.0 3.5 0.00 0.00 0.00 94 1016.4
20260902020455 57 95 8.7 9.6 0.00 0.00 0.00 94 1016.3
20260902020155 57 157 0.0 7.8 0.00 0.00 0.00 94 1016.3
20260902015855 57 350 0.0 4.3 0.00 0.00 0.00 94 1016.3
20260902015555 57 153 0.0 9.6 0.00 0.00 0.00 94 1016.3
20260902015255 57 313 0.0 10.4 0.00 0.00 0.00 94 1016.2
20260902014955 57 196 0.0 7.8 0.00 0.00 0.00 93 1016.1
20260902014655 57 296 6.1 11.3 0.00 0.00 0.00 93 1016.2
20260902014355 57 67 4.3 7.8 0.00 0.00 0.00 93 1016.2
20260902014055 58 120 0.0 5.2 0.00 0.00 0.00 93 1016.2
20260902013755 58 66 0.0 5.2 0.00 0.00 0.00 93 1016.3
20260902013455 58 190 4.3 4.3 0.00 0.00 0.00 93 1016.1
20260902013155 58 89 0.0 4.3 0.00 0.00 0.00 93 1016.3
20260902012855 58 290 0.0 3.5 0.00 0.00 0.00 93 1016.4
20260902012555 58 142 5.2 7.8 0.00 0.00 0.00 93 1016.2
20260902012255 58 107 0.0 9.6 0.00 0.00 0.00 92 1016.3
20260902011955 58 266 7.0 10.4 0.00 0.00 0.00 92 1016.2
20260902011655 58 102 0.0 4.3 0.00 0.00 0.00 92 1016.3
20260902011355 58 319 4.3 6.1 0.00 0.00 0.00 92 1016.2
20260902011055 58 50 0.0 5.2 0.00 0.00 0.00 92 1016.1
20260902010755 58 32 3.5 5.2 0.00 0.00 0.00 92 1016.2
20260902010455 58 113 0.0 6.1 0.00 0.00 0.00 92 1016.1
20260902010155 58 152 4.3 4.3 0.00 0.00 0.00 92 1016.3
20260902005855 58 50 0.0 9.6 0.00 0.00 0.00 92 1016.1
20260902005555 58 134 3.5 6.1 0.00 0.00 0.00 91 1016.3
20260902005255 58 145 0.0 7.8 0.00 0.00 0.00 91 1016.2
20260902004955 58 63 0.0 5.2 0.00 0.00 0.00 91 1016.3
20260902004655 59 165 0.0 3.5 0.00 0.00 0.00 91 1016.4
20260902004355 59 212 13.0 13.0 0.00 0.00 0.00 91 1016.2
20260902004055 59 5 3.5 8.7 0.00 0.00 0.00 91 1016.4
20260902003755 59 299 0.0 7.8 0.00 0.00 0.00 91 1016.3
20260902003455 59 313 4.3 5.2 0.00 0.00 0.00 91 1016.3
20260902003155 59 297 0.0 7.8 0.00 0.00 0.00 90 1016.1
20260902002855 59 293 4.3 5.2 0.00 0.00 0.00 90 1016.2
20260902002555 59 46 3.5 3.5 0.00 0.00 0.00 90 1016.2
20260902002255 59 179 3.5 3.5 0.00 0.00 0.00 89 1016.3
20260902001955 59 333 0.0 5.2 0.00 0.00 0.00 89 1016.2
20260902001655 59 292 0.0 6.1 0.00 0.00 0.00 89 1016.3
20260902001355 60 22 3.5 5.2 0.00 0.00 0.00 89 1016.1
20260902001055 60 292 0.0 9.6 0.00 0.00 0.00 89 1016.4
20260902000755 60 47 0.0 5.2 0.00 0.00 0.00 88 1016.5
20260902000455 60 1 0.0 7.8 0.00 0.00 0.00 88 1016.3
20260902000155 60 316 0.0 7.0 0.00 0.00 0.00 88 1016.2
20260901235855 60 46 5.2 5.2 0.00 0.00 0.00 88 1016.4
20260901235555 60 22 0.0 5.2 0.00 0.00 0.00 88 1016.3
20260901235255 60 247 0.0 9.6 0.00 0.00 0.00 88 1016.3
20260901234955 60 10 5.2 7.0 0.00 0.00 0.00 88 1016.2
20260901234655 60 288 5.2 8.7 0.00 0.00 0.00 88 1016.3
20260901234355 60 317 5.2 9.6 0.00 0.00 0.00 88 1016.3
20260901234055 60 337 4.3 10.4 0.00 0.00 0.00 88 1016.2
20260901233755 60 195 3.5 5.2 0.00 0.00 0.00 88 1016.3
20260901233455 60 350 5.2 9.6 0.00 0.00 0.00 88 1016.1
20260901233155 60 346 5.2 5.2 0.00 0.00 0.00 88 1016.4
20260901232855 60 281 9.6 13.0 0.00 0.00 0.00 88 1016.1
20260901232555 60 328 3.5 5.2 0.00 0.00 0.00 88 1016.2
20260901232255 60 322 5.2 16.5 0.00 0.00 0.00 88 1016.1
20260901231955 60 306 3.5 7.8 0.00 0.00 0.00 88 1015.9
20260901231655 60 285 5.2 9.6 0.00 0.00 0.00 88 1016.2
20260901231355 60 286 7.0 9.6 0.00 0.00 0.00 89 1016.2
20260901231055 60 275 0.0 8.7 0.00 0.00 0.00 89 1016.1
20260901230755 60 326 19.1 19.1 0.00 0.00 0.00 89 1016.0
20260901230455 60 351 0.0 4.3 0.00 0.00 0.00 89 1016.1
20260901230155 60 75 4.3 5.2 0.00 0.00 0.00 88 1016.0
20260901225855 60 346 5.2 7.8 0.00 0.00 0.00 88 1016.2
20260901225555 60 347 7.0 12.2 0.00 0.00 0.00 88 1016.1
20260901225255 60 329 3.5 6.1 0.00 0.00 0.00 88 1016.0
20260901224955 60 338 4.3 5.2 0.00 0.00 0.00 87 1016.0
20260901224655 60 44 0.0 7.0 0.00 0.00 0.00 87 1016.0
20260901224355 60 232 8.7 10.4 0.00 0.00 0.00 87 1016.0
20260901224055 60 315 3.5 9.6 0.00 0.00 0.00 86 1016.1
20260901223755 60 77 7.0 16.5 0.00 0.00 0.00 86 1016.1
20260901223455 61 293 3.5 5.2 0.00 0.00 0.00 86 1016.0
20260901223155 61 75 5.2 5.2 0.00 0.00 0.00 85 1016.0
20260901222855 61 29 0.0 0.0 0.00 0.00 0.00 85 1016.1
20260901222555 61 315 3.5 7.8 0.00 0.00 0.00 85 1016.0
20260901222255 61 315 3.5 7.8 0.00 0.00 0.00 85 1016.0
20260901221955 61 305 9.6 10.4 0.00 0.00 0.00 84 1015.7
20260901221655 61 133 0.0 3.5 0.00 0.00 0.00 84 1016.0
20260901221355 61 289 9.6 13.0 0.00 0.00 0.00 84 1016.0
20260901221055 61 329 12.2 17.4 0.00 0.00 0.00 84 1015.9
20260901220755 61 142 0.0 13.0 0.00 0.00 0.00 84 1015.8
20260901220455 61 288 5.2 9.6 0.00 0.00 0.00 84 1015.9
20260901220155 61 257 4.3 7.0 0.00 0.00 0.00 84 1015.9
20260901215855 61 246 7.0 13.9 0.00 0.00 0.03 84 1016.0
20260901215555 61 25 0.0 9.6 0.00 0.00 0.03 84 1015.9
20260901215255 61 301 15.6 16.5 0.00 0.00 0.03 84 1015.9
20260901214955 61 360 6.1 13.0 0.00 0.00 0.03 84 1015.9
20260901214655 61 301 13.9 13.9 0.00 0.00 0.03 84 1015.9
20260901214355 61 290 5.2 15.6 0.00 0.00 0.03 83 1016.1
20260901214055 61 310 12.2 12.2 0.00 0.00 0.03 83 1016.1
20260901213755 61 322 12.2 21.7 0.00 0.00 0.03 84 1015.9
20260901213455 61 299 0.0 5.2 0.00 0.00 0.03 84 1016.0
20260901213155 61 321 13.9 17.4 0.00 0.00 0.03 84 1015.8
20260901212855 61 308 6.1 7.8 0.00 0.00 0.03 84 1015.9
20260901212555 61 41 3.5 7.0 0.00 0.00 0.03 83 1015.8
20260901212255 61 311 0.0 6.1 0.00 0.00 0.03 83 1015.8
20260901211955 61 75 3.5 7.8 0.00 0.00 0.03 83 1015.8
20260901211655 61 196 4.3 6.1 0.00 0.00 0.03 82 1015.7
20260901211355 61 83 0.0 4.3 0.00 0.00 0.03 82 1015.8
20260901211055 61 267 3.5 5.2 0.00 0.00 0.03 82 1015.9
20260901210755 61 221 12.2 12.2 0.00 0.00 0.03 83 1015.8
20260901210455 61 135 0.0 8.7 0.00 0.00 0.03 83 1015.9
20260901210155 60 331 10.4 12.2 0.00 0.00 0.03 83 1015.8
20260901205855 60 142 0.0 0.0 0.00 0.00 0.03 83 1015.7
20260901205555 60 310 6.1 7.8 0.00 0.00 0.03 81 1015.8
20260901205255 60 310 6.1 7.8 0.00 0.00 0.03 81 1015.8
20260901204955 60 310 6.1 7.8 0.00 0.00 0.03 81 1015.7
20260901204655 60 310 6.1 7.8 0.00 0.00 0.03 81 1015.6
20260901204355 60 310 6.1 7.8 0.00 0.00 0.03 81 1015.5
20260901204055 60 310 6.1 7.8 0.00 0.00 0.03 81 1015.7
20260901203755 60 355 0.0 3.5 0.00 0.00 0.03 81 1015.6
20260901203455 60 355 0.0 3.5 0.00 0.00 0.03 81 1015.6
20260901203155 60 355 0.0 3.5 0.00 0.00 0.03 81 1015.7
20260901202855 60 355 0.0 3.5 0.00 0.00 0.03 81 1015.6
20260901202555 60 355 0.0 3.5 0.00 0.00 0.03 81 1015.6
20260901202255 61 8 9.6 9.6 0.00 0.00 0.03 80 1015.7
20260901201955 61 8 9.6 9.6 0.00 0.00 0.03 80 1015.8
20260901201655 61 8 9.6 9.6 0.00 0.00 0.03 80 1015.8
20260901201355 61 8 9.6 9.6 0.00 0.00 0.03 80 1015.6
20260901201055 61 8 9.6 9.6 0.00 0.00 0.03 80 1015.7
20260901200755 61 8 9.6 9.6 0.00 0.00 0.03 80 1015.5
20260901200455 61 8 9.6 9.6 0.00 0.00 0.03 80 1015.7
20260901200155 61 8 9.6 9.6 0.00 0.00 0.03 80 1015.7
20260901195855 61 8 9.6 9.6 0.00 0.00 0.03 80 1015.6
20260901195555 61 8 9.6 9.6 0.00 0.00 0.03 80 1015.5
20260901195255 61 8 9.6 9.6 0.00 0.00 0.03 80 1015.6
20260901194955 61 202 4.3 9.6 0.00 0.00 0.03 81 1015.6
20260901194655 61 202 4.3 9.6 0.00 0.00 0.03 81 1015.6
20260901194355 61 202 4.3 9.6 0.00 0.00 0.03 81 1015.6
20260901194055 61 202 4.3 9.6 0.00 0.00 0.03 81 1015.6
20260901193755 61 202 4.3 9.6 0.00 0.00 0.03 81 1015.6
20260901193455 61 202 4.3 9.6 0.00 0.00 0.03 81 1015.6
20260901193155 61 323 3.5 8.7 0.00 0.00 0.03 81 1015.6
20260901192855 61 347 3.5 7.8 0.00 0.00 0.03 81 1015.5
20260901192555 61 290 0.0 7.8 0.00 0.00 0.03 82 1015.7
20260901192255 61 296 5.2 13.0 0.00 0.00 0.03 82 1015.5
20260901191955 61 203 12.2 13.0 0.00 0.00 0.03 83 1015.6
20260901191655 61 60 5.2 10.4 0.00 0.00 0.03 84 1015.5
20260901191355 61 137 3.5 4.3 0.00 0.00 0.03 84 1015.5
20260901191055 62 312 13.0 13.0 0.00 0.00 0.03 84 1015.5
20260901190755 62 300 5.2 7.0 0.00 0.00 0.03 83 1015.6
20260901190455 62 300 5.2 7.0 0.00 0.00 0.03 83 1015.5
20260901190155 63 345 3.5 7.8 0.00 0.00 0.03 83 1015.6
20260901185855 63 345 3.5 7.8 0.00 0.00 0.03 83 1015.3
20260901185555 63 345 3.5 7.8 0.00 0.00 0.03 83 1015.3
20260901185255 63 345 3.5 7.8 0.00 0.00 0.03 83 1015.4
20260901184955 63 345 3.5 7.8 0.00 0.00 0.03 83 1015.4
20260901184655 63 345 3.5 7.8 0.00 0.00 0.03 83 1015.5
20260901184355 63 345 3.5 7.8 0.00 0.00 0.03 83 1015.3
20260901184055 63 345 3.5 7.8 0.00 0.00 0.03 83 1015.4
20260901183755 63 46 0.0 3.5 0.00 0.00 0.03 83 1015.5
20260901183455 63 46 0.0 10.4 0.00 0.00 0.03 83 1015.3
20260901183155 63 66 0.0 9.6 0.00 0.00 0.03 83 1015.2
20260901182855 63 296 0.0 9.6 0.00 0.00 0.03 83 1015.2
20260901182555 63 318 0.0 5.2 0.00 0.00 0.03 83 1015.2
20260901182255 63 76 3.5 8.7 0.00 0.00 0.03 83 1015.2
20260901181955 63 307 6.1 7.0 0.00 0.00 0.03 83 1015.3
20260901181655 63 102 3.5 15.6 0.00 0.00 0.03 83 1015.1
20260901181355 63 74 0.0 10.4 0.00 0.00 0.03 83 1015.1
20260901181055 63 269 0.0 11.3 0.00 0.00 0.03 83 1015.1
20260901180755 63 306 3.5 8.7 0.00 0.00 0.03 83 1015.1
20260901180455 63 263 0.0 11.3 0.00 0.00 0.03 82 1015.1
20260901180155 63 315 0.0 16.5 0.00 0.00 0.03 82 1015.1
20260901175855 63 201 5.2 15.6 0.00 0.00 0.03 82 1015.0
20260901175555 64 354 0.0 13.9 0.00 0.00 0.03 82 1015.0
20260901175255 64 93 0.0 8.7 0.00 0.00 0.03 81 1015.1
20260901174955 64 58 5.2 8.7 0.00 0.00 0.03 81 1015.1
20260901174655 64 286 13.0 13.9 0.00 0.00 0.03 81 1015.0
20260901174355 64 303 8.7 20.0 0.00 0.00 0.03 80 1014.8
20260901174055 64 16 3.5 12.2 0.00 0.00 0.03 80 1015.0
20260901173755 64 7 0.0 11.3 0.00 0.00 0.03 80 1014.9
20260901173455 64 305 6.1 15.6 0.00 0.00 0.03 80 1014.7
20260901173155 64 346 9.6 19.1 0.00 0.00 0.03 80 1014.9
20260901172855 64 122 10.4 17.4 0.00 0.00 0.03 80 1014.9
20260901172555 64 295 5.2 14.8 0.00 0.00 0.03 81 1014.9
20260901172255 64 317 0.0 13.0 0.00 0.00 0.03 83 1014.7
20260901171955 64 222 16.5 18.2 0.00 0.00 0.03 82 1014.7
20260901171655 64 305 6.1 12.2 0.00 0.00 0.03 83 1014.8
20260901171355 64 210 0.0 13.0 0.00 0.00 0.03 83 1014.6
20260901171055 64 299 4.3 33.0 0.00 0.00 0.03 82 1014.6
20260901170755 64 273 5.2 13.0 0.00 0.00 0.03 83 1014.8
20260901170455 64 264 5.2 12.2 0.00 0.00 0.03 83 1014.6
20260901170155 64 323 0.0 13.9 0.00 0.00 0.03 83 1014.6
20260901165855 64 286 13.0 15.6 0.00 0.00 0.03 83 1014.5
20260901165555 64 261 5.2 13.0 0.00 0.00 0.03 84 1014.5
20260901165255 63 253 5.2 13.0 0.00 0.00 0.03 84 1014.5
20260901164955 63 143 5.2 11.3 0.00 0.00 0.03 84 1014.4
20260901164655 63 356 9.6 13.0 0.00 0.00 0.03 84 1014.4
20260901164355 63 277 7.8 17.4 0.00 0.00 0.03 85 1014.4
20260901164055 63 283 7.0 11.3 0.00 0.00 0.03 86 1014.4
20260901163755 63 236 4.3 22.6 0.00 0.00 0.03 86 1014.3
20260901163455 63 37 4.3 13.0 0.00 0.00 0.03 86 1014.3
20260901163155 64 269 7.0 14.8 0.00 0.00 0.03 86 1014.3
20260901162855 64 305 5.2 7.0 0.00 0.00 0.03 87 1014.4
20260901162555 64 312 7.0 13.0 0.00 0.00 0.03 86 1014.5
20260901162255 64 154 6.1 10.4 0.00 0.00 0.03 85 1014.4
20260901161955 65 341 7.0 26.9 0.00 0.00 0.03 83 1014.4
20260901161655 65 222 9.6 37.4 0.00 0.00 0.03 81 1014.5
20260901161355 66 212 9.6 20.9 0.00 0.00 0.03 79 1014.4
20260901161055 67 263 13.0 26.1 0.00 0.00 0.03 75 1014.4
20260901160755 67 281 19.1 31.3 0.00 0.00 0.03 74 1014.4
20260901160455 67 148 12.2 35.6 0.00 0.00 0.03 74 1014.5
20260901160155 68 316 5.2 23.5 0.00 0.00 0.03 73 1014.3
20260901155855 68 304 10.4 16.5 0.00 0.00 0.03 72 1014.3
20260901155555 68 251 0.0 17.4 0.00 0.00 0.03 72 1014.3
20260901155255 68 298 7.8 24.3 0.00 0.00 0.03 71 1014.0
20260901154955 68 259 9.6 24.3 0.00 0.00 0.03 71 1014.1
20260901154655 69 245 12.2 26.1 0.00 0.00 0.03 70 1014.0
20260901154355 69 330 4.3 13.0 0.00 0.00 0.03 70 1014.2
20260901154055 69 308 7.8 17.4 0.00 0.00 0.03 69 1013.9
20260901153755 69 305 12.2 26.9 0.00 0.00 0.03 69 1014.2
20260901153455 69 142 9.6 14.8 0.00 0.00 0.03 69 1014.1
20260901153155 70 244 14.8 20.0 0.00 0.00 0.03 68 1014.1
20260901152855 70 342 9.6 23.5 0.00 0.00 0.03 67 1014.2
20260901152555 70 269 8.7 20.9 0.00 0.00 0.03 67 1014.1
20260901152255 70 171 9.6 20.0 0.00 0.00 0.03 69 1014.3
20260901151955 70 294 14.8 19.1 0.00 0.00 0.03 69 1014.0
20260901151655 70 273 5.2 27.8 0.00 0.00 0.03 68 1014.2
20260901151355 69 160 4.3 14.8 0.00 0.00 0.03 69 1014.3
20260901151055 69 267 9.6 33.0 0.00 0.00 0.03 68 1014.2
20260901150755 69 225 5.2 20.0 0.00 0.00 0.03 69 1014.4
20260901150455 70 267 9.6 26.1 0.00 0.00 0.03 68 1014.2
20260901150155 70 310 19.1 26.1 0.00 0.00 0.03 67 1014.2
20260901145855 70 230 5.2 14.8 0.00 0.00 0.03 68 1014.2
20260901145555 70 282 7.0 17.4 0.00 0.00 0.03 68 1014.1
20260901145255 70 258 13.0 24.3 0.00 0.00 0.03 68 1014.1
20260901144955 70 244 5.2 14.8 0.00 0.00 0.03 67 1014.0
20260901144655 71 310 15.6 26.1 0.00 0.00 0.03 66 1013.9
20260901144355 72 238 4.3 18.2 0.00 0.00 0.03 65 1013.8
20260901144055 72 232 7.0 24.3 0.00 0.00 0.03 64 1013.8
20260901143755 72 225 10.4 28.7 0.00 0.00 0.03 65 1013.7
20260901143455 71 236 9.6 33.9 0.00 0.00 0.03 65 1013.9
20260901143155 71 308 7.0 26.9 0.00 0.00 0.03 67 1013.7
20260901142855 70 240 4.3 18.2 0.00 0.00 0.03 67 1013.7
20260901142555 70 343 16.5 16.5 0.00 0.00 0.03 67 1013.8
20260901142255 70 266 7.0 23.5 0.00 0.00 0.03 66 1013.6
20260901141955 70 267 9.6 17.4 0.00 0.00 0.03 66 1013.8
20260901141655 71 207 16.5 37.4 0.00 0.00 0.03 65 1013.8
20260901141355 71 329 13.0 33.0 0.00 0.00 0.03 65 1013.8
20260901141055 71 222 5.2 28.7 0.00 0.00 0.03 66 1013.8
20260901140755 71 158 7.8 12.2 0.00 0.00 0.03 67 1013.8
20260901140455 70 114 5.2 19.1 0.00 0.00 0.03 68 1013.8
20260901140155 70 333 0.0 29.5 0.00 0.00 0.03 67 1013.9
20260901135855 70 329 20.0 25.2 0.00 0.00 0.03 67 1013.7
20260901135555 70 306 7.8 9.6 0.00 0.00 0.03 68 1013.7
20260901135255 70 278 7.0 26.9 0.00 0.00 0.03 67 1013.6
20260901134955 71 328 7.8 27.8 0.00 0.00 0.03 67 1013.7
20260901134655 71 197 3.5 25.2 0.00 0.00 0.03 66 1013.6
20260901134355 72 231 5.2 20.0 0.00 0.00 0.03 65 1013.6
20260901134055 72 225 11.3 21.7 0.00 0.00 0.03 65 1013.7
20260901133755 72 267 7.0 30.4 0.00 0.00 0.03 65 1013.6
20260901133455 72 291 9.6 20.0 0.00 0.00 0.03 65 1013.6
20260901133155 72 298 4.3 16.5 0.00 0.00 0.03 64 1013.5
20260901132855 73 263 20.0 26.9 0.00 0.00 0.03 63 1013.6
20260901132555 73 282 5.2 16.5 0.00 0.00 0.03 63 1013.7
20260901132255 72 258 5.2 21.7 0.00 0.00 0.03 64 1013.6
20260901131955 72 219 16.5 26.1 0.00 0.00 0.03 64 1013.7
20260901131655 72 314 9.6 17.4 0.00 0.00 0.03 64 1013.8
20260901131355 72 305 7.8 22.6 0.00 0.00 0.03 64 1013.4
20260901131055 72 312 4.3 12.2 0.00 0.00 0.03 67 1013.6
20260901130755 71 325 5.2 13.0 0.00 0.00 0.03 66 1013.4
20260901130455 70 248 0.0 12.2 0.00 0.00 0.03 68 1013.5
20260901130155 70 318 12.2 27.8 0.00 0.00 0.03 67 1013.6
20260901125855 70 126 13.0 26.1 0.00 0.00 0.03 66 1013.7
20260901125555 71 217 5.2 23.5 0.00 0.00 0.03 64 1013.7
20260901125255 70 283 0.0 15.6 0.00 0.00 0.03 65 1013.6
20260901124955 70 312 7.0 19.1 0.00 0.00 0.03 65 1013.6
20260901124655 69 303 7.0 13.9 0.00 0.00 0.03 66 1013.7
20260901124355 69 323 7.8 9.6 0.00 0.00 0.03 66 1013.4
20260901124055 69 260 0.0 20.9 0.00 0.00 0.03 66 1013.7
20260901123755 69 323 10.4 17.4 0.00 0.00 0.03 67 1013.6
20260901123455 69 310 13.0 30.4 0.00 0.00 0.03 66 1013.6
20260901123155 70 226 23.5 26.9 0.00 0.00 0.03 68 1013.7
20260901122855 70 188 8.7 16.5 0.00 0.00 0.03 68 1013.7
20260901122555 71 274 6.1 25.2 0.00 0.00 0.03 68 1013.7
20260901122255 71 241 7.0 36.5 0.00 0.00 0.03 66 1013.5
20260901121955 71 309 9.6 25.2 0.00 0.00 0.03 66 1013.4
20260901121655 71 281 5.2 23.5 0.00 0.00 0.03 65 1013.6
20260901121414 72 239 6.1 18.2 0.00 0.00 0.03 66 1013.4
20260901121055 72 177 15.6 40.0 0.00 0.00 0.03 65 1013.2
20260901120755 71 135 8.7 13.0 0.00 0.00 0.03 69 1013.4
20260901120455 71 59 7.8 10.4 0.00 0.00 0.03 70 1013.3
20260901120155 70 230 9.6 12.2 0.00 0.00 0.03 71 1013.5
20260901115855 70 296 5.2 10.4 0.00 0.00 0.03 70 1013.4
20260901115555 70 265 13.0 17.4 0.00 0.00 0.03 70 1013.4
20260901115255 69 169 7.0 13.0 0.00 0.00 0.03 71 1013.5
20260901114955 69 160 10.4 16.5 0.00 0.00 0.03 70 1013.4
20260901114655 70 305 6.1 14.8 0.00 0.00 0.03 69 1013.7
20260901114355 70 305 7.0 20.9 0.00 0.00 0.03 68 1013.5
20260901114055 70 269 7.8 29.5 0.00 0.00 0.03 67 1013.4
20260901113755 70 220 11.3 19.1 0.00 0.00 0.03 66 1013.3
20260901113455 71 232 9.6 19.1 0.00 0.00 0.03 65 1013.5
20260901113155 71 214 9.6 14.8 0.00 0.00 0.03 64 1013.3
20260901112855 73 240 7.0 22.6 0.00 0.00 0.03 61 1013.3
20260901112555 73 327 4.3 15.6 0.00 0.00 0.03 63 1013.2
20260901112255 72 260 7.0 22.6 0.00 0.00 0.03 63 1013.2
20260901111955 71 229 13.9 37.4 0.00 0.00 0.03 65 1013.3
20260901111655 71 252 15.6 27.8 0.00 0.00 0.03 66 1013.3
20260901111355 70 243 25.2 37.4 0.00 0.00 0.03 67 1013.3
20260901111055 69 285 6.1 26.1 0.00 0.00 0.03 70 1013.3
20260901110755 69 238 10.4 16.5 0.00 0.00 0.03 71 1013.6
20260901110455 69 278 4.3 19.1 0.00 0.00 0.03 71 1013.3
20260901110155 69 284 7.0 19.1 0.00 0.00 0.03 71 1013.3
20260901105855 69 266 7.0 38.2 0.00 0.00 0.03 70 1013.2
20260901105555 69 186 24.3 30.4 0.00 0.00 0.03 70 1013.1
20260901105255 69 237 20.0 20.0 0.00 0.00 0.03 71 1013.3
20260901104955 69 294 11.3 13.0 0.00 0.00 0.03 71 1013.1
20260901104655 70 269 9.6 31.3 0.00 0.00 0.03 69 1013.1
20260901104355 70 204 8.7 17.4 0.00 0.00 0.03 69 1013.2
20260901104055 70 233 8.7 13.9 0.00 0.00 0.03 69 1013.2
20260901103755 70 259 9.6 17.4 0.00 0.00 0.03 68 1013.0
20260901103455 70 162 14.8 37.4 0.00 0.00 0.03 66 1013.1
20260901103155 70 210 13.0 20.9 0.00 0.00 0.03 68 1013.1
20260901102855 70 223 5.2 30.4 0.00 0.00 0.03 68 1013.1
20260901102555 70 223 8.7 21.7 0.00 0.00 0.03 67 1013.0
20260901102255 70 170 6.1 20.0 0.00 0.00 0.03 69 1013.0
20260901101955 70 268 11.3 20.0 0.00 0.00 0.03 69 1013.0
20260901101655 71 311 16.5 24.3 0.00 0.00 0.03 67 1013.1
20260901101355 71 30 8.7 27.8 0.00 0.00 0.03 67 1012.9
20260901101055 70 308 15.6 27.8 0.00 0.00 0.03 68 1013.1
20260901100755 70 249 3.5 40.8 0.00 0.00 0.03 65 1012.8
20260901100455 71 283 18.2 33.9 0.00 0.00 0.03 66 1013.0
20260901100155 71 227 9.6 40.8 0.00 0.00 0.03 66 1013.0
20260901095855 71 231 7.8 20.9 0.00 0.00 0.03 69 1013.2
20260901095555 70 283 7.0 32.2 0.00 0.00 0.03 68 1012.9
20260901095255 71 236 7.8 26.1 0.00 0.00 0.03 68 1012.9
20260901094955 71 277 7.8 18.2 0.00 0.00 0.03 69 1012.7
20260901094655 70 293 7.8 23.5 0.00 0.00 0.03 71 1012.8
20260901094355 70 304 7.0 21.7 0.00 0.00 0.03 72 1012.8
20260901094055 69 289 5.2 23.5 0.00 0.00 0.03 72 1012.7
20260901093755 69 307 16.5 20.0 0.00 0.00 0.03 73 1012.7
20260901093455 69 289 12.2 23.5 0.00 0.00 0.03 73 1012.8
20260901093155 69 272 13.9 16.5 0.00 0.00 0.03 72 1012.7
20260901092855 68 283 5.2 13.0 0.00 0.00 0.03 75 1012.7
20260901092555 68 256 10.4 30.4 0.00 0.00 0.03 73 1012.8
20260901092254 68 247 8.7 20.0 0.00 0.00 0.03 75 1012.7
20260901091955 68 287 7.8 20.0 0.00 0.00 0.03 77 1012.4
20260901091655 68 119 14.8 25.2 0.00 0.00 0.03 76 1012.5
20260901091355 67 272 7.0 20.9 0.00 0.00 0.03 77 1012.7
20260901091055 67 283 13.0 13.0 0.00 0.00 0.03 79 1012.6
20260901090755 66 297 7.8 23.5 0.00 0.00 0.03 79 1012.7
20260901090455 66 255 9.6 32.2 0.00 0.00 0.03 79 1012.6
20260901090155 66 218 11.3 20.0 0.00 0.00 0.03 81 1012.5
20260901085855 65 287 13.0 26.1 0.00 0.00 0.03 81 1012.5
20260901085555 65 218 6.1 20.0 0.00 0.00 0.03 81 1012.8
20260901085242 0 0.0 0.0 0.00 0.00 0.00
20260901085202 0 0.0 0.0 0.00 0.00 0.00
20260901085135 0 0.0 0.0 0.00 0.00 0.00
20260901085122 65 233 9.6 14.8 0.00 0.00 0.03 83 1012.5
20260901084822 65 6 5.2 13.9 0.00 0.00 0.03 84 1012.6
20260901084522 65 150 13.0 23.5 0.00 0.00 0.03 85 1012.5
20260901084209 0 0.0 0.0 0.00 0.00 0.00
20260901084142 0 0.0 0.0 0.00 0.00 0.00
20260901084103 0 0.0 0.0 0.00 0.00 0.00
20260901084049 0 0.0 0.0 0.00 0.00 0.00
20260901084009 0 0.0 0.0 0.00 0.00 0.00
20260901083943 0 0.0 0.0 0.00 0.00 0.00
20260901083903 0 0.0 0.0 0.00 0.00 0.00
20260901083850 0 0.0 0.0 0.00 0.00 0.00
20260901083810 0 0.0 0.0 0.00 0.00 0.00
20260901083744 0 0.0 0.0 0.00 0.00 0.00
20260901083704 0 0.0 0.0 0.00 0.00 0.00
20260901083651 0 0.0 0.0 0.00 0.00 0.00
20260901083611 0 0.0 0.0 0.00 0.00 0.00
20260901083545 0 0.0 0.0 0.00 0.00 0.00
20260901083505 0 0.0 0.0 0.00 0.00 0.00
20260901083452 0 0.0 0.0 0.00 0.00 0.00
20260901083412 0 0.0 0.0 0.00 0.00 0.00
20260901083345 0 0.0 0.0 0.00 0.00 0.00
20260901083306 0 0.0 0.0 0.00 0.00 0.00
20260901083253 0 0.0 0.0 0.00 0.00 0.00
20260901083213 0 0.0 0.0 0.00 0.00 0.00
20260901083146 0 0.0 0.0 0.00 0.00 0.00
20260901083106 0 0.0 0.0 0.00 0.00 0.00
20260901083041 0 0.0 0.0 0.00 0.00 0.00
20260901083000 0 0.0 0.0 0.00 0.00 0.00
20260901082947 0 0.0 0.0 0.00 0.00 0.00
20260901082907 0 0.0 0.0 0.00 0.00 0.00
20260901082841 0 0.0 0.0 0.00 0.00 0.00
20260901082801 0 0.0 0.0 0.00 0.00 0.00
20260901082748 0 0.0 0.0 0.00 0.00 0.00
20260901082708 0 0.0 0.0 0.00 0.00 0.00
20260901082642 0 0.0 0.0 0.00 0.00 0.00
20260901082602 0 0.0 0.0 0.00 0.00 0.00
20260901082549 0 0.0 0.0 0.00 0.00 0.00
20260901082509 0 0.0 0.0 0.00 0.00 0.00
20260901082442 0 0.0 0.0 0.00 0.00 0.00
20260901082402 0 0.0 0.0 0.00 0.00 0.00
20260901082349 0 0.0 0.0 0.00 0.00 0.00
20260901082309 0 0.0 0.0 0.00 0.00 0.00
20260901082243 0 0.0 0.0 0.00 0.00 0.00
20260901082203 0 0.0 0.0 0.00 0.00 0.00
20260901082150 0 0.0 0.0 0.00 0.00 0.00
20260901082110 0 0.0 0.0 0.00 0.00 0.00
20260901082044 0 0.0 0.0 0.00 0.00 0.00
20260901082004 0 0.0 0.0 0.00 0.00 0.00
20260901081951 0 0.0 0.0 0.00 0.00 0.00
20260901081911 0 0.0 0.0 0.00 0.00 0.00
20260901081844 0 0.0 0.0 0.00 0.00 0.00
20260901081805 0 0.0 0.0 0.00 0.00 0.00
20260901081752 0 0.0 0.0 0.00 0.00 0.00
20260901081712 0 0.0 0.0 0.00 0.00 0.00
20260901081646 0 0.0 0.0 0.00 0.00 0.00
20260901081606 0 0.0 0.0 0.00 0.00 0.00
20260901081552 0 0.0 0.0 0.00 0.00 0.00
20260901081513 0 0.0 0.0 0.00 0.00 0.00
20260901081446 0 0.0 0.0 0.00 0.00 0.00
20260901081407 0 0.0 0.0 0.00 0.00 0.00
20260901081340 0 0.0 0.0 0.00 0.00 0.00
20260901081300 0 0.0 0.0 0.00 0.00 0.00
20260901081247 0 0.0 0.0 0.00 0.00 0.00
20260901081207 0 0.0 0.0 0.00 0.00 0.00
20260901081141 0 0.0 0.0 0.00 0.00 0.00
20260901081101 0 0.0 0.0 0.00 0.00 0.00
20260901081048 0 0.0 0.0 0.00 0.00 0.00
20260901081008 0 0.0 0.0 0.00 0.00 0.00
20260901080942 0 0.0 0.0 0.00 0.00 0.00
20260901080902 0 0.0 0.0 0.00 0.00 0.00
20260901080849 0 0.0 0.0 0.00 0.00 0.00
20260901080809 0 0.0 0.0 0.00 0.00 0.00
20260901080742 0 0.0 0.0 0.00 0.00 0.00
20260901080703 0 0.0 0.0 0.00 0.00 0.00
20260901080650 0 0.0 0.0 0.00 0.00 0.00
20260901080610 0 0.0 0.0 0.00 0.00 0.00
20260901080543 0 0.0 0.0 0.00 0.00 0.00
20260901080504 0 0.0 0.0 0.00 0.00 0.00
20260901080451 0 0.0 0.0 0.00 0.00 0.00
20260901080411 0 0.0 0.0 0.00 0.00 0.00
20260901080344 0 0.0 0.0 0.00 0.00 0.00
20260901080305 0 0.0 0.0 0.00 0.00 0.00
20260901080251 0 0.0 0.0 0.00 0.00 0.00
20260901080212 0 0.0 0.0 0.00 0.00 0.00
20260901080145 0 0.0 0.0 0.00 0.00 0.00
20260901080106 0 0.0 0.0 0.00 0.00 0.00
20260901080052 0 0.0 0.0 0.00 0.00 0.00
20260901080013 0 0.0 0.0 0.00 0.00 0.00
20260901075946 0 0.0 0.0 0.00 0.00 0.00
20260901075906 0 0.0 0.0 0.00 0.00 0.00
20260901075840 0 0.0 0.0 0.00 0.00 0.00
20260901075800 0 0.0 0.0 0.00 0.00 0.00
20260901075747 0 0.0 0.0 0.00 0.00 0.00
20260901075708 0 0.0 0.0 0.00 0.00 0.00
20260901075641 0 0.0 0.0 0.00 0.00 0.00
20260901075601 0 0.0 0.0 0.00 0.00 0.00
20260901075548 0 0.0 0.0 0.00 0.00 0.00
20260901075508 0 0.0 0.0 0.00 0.00 0.00
20260901075442 0 0.0 0.0 0.00 0.00 0.00
20260901075402 0 0.0 0.0 0.00 0.00 0.00
20260901075349 0 0.0 0.0 0.00 0.00 0.00
20260901075309 0 0.0 0.0 0.00 0.00 0.00
20260901075242 0 0.0 0.0 0.00 0.00 0.00
20260901075203 0 0.0 0.0 0.00 0.00 0.00
20260901075150 0 0.0 0.0 0.00 0.00 0.00
20260901075110 0 0.0 0.0 0.00 0.00 0.00
20260901075043 0 0.0 0.0 0.00 0.00 0.00
20260901075004 0 0.0 0.0 0.00 0.00 0.00
20260901074951 0 0.0 0.0 0.00 0.00 0.00
20260901074911 0 0.0 0.0 0.00 0.00 0.00
20260901074844 0 0.0 0.0 0.00 0.00 0.00
20260901074805 0 0.0 0.0 0.00 0.00 0.00
20260901074751 0 0.0 0.0 0.00 0.00 0.00
20260901074711 0 0.0 0.0 0.00 0.00 0.00
20260901074645 0 0.0 0.0 0.00 0.00 0.00
20260901074605 0 0.0 0.0 0.00 0.00 0.00
20260901074552 0 0.0 0.0 0.00 0.00 0.00
20260901074512 0 0.0 0.0 0.00 0.00 0.00
20260901074446 0 0.0 0.0 0.00 0.00 0.00
20260901074406 0 0.0 0.0 0.00 0.00 0.00
20260901074340 0 0.0 0.0 0.00 0.00 0.00
20260901074300 0 0.0 0.0 0.00 0.00 0.00
20260901074247 0 0.0 0.0 0.00 0.00 0.00
20260901074207 0 0.0 0.0 0.00 0.00 0.00
20260901074141 0 0.0 0.0 0.00 0.00 0.00
20260901074101 0 0.0 0.0 0.00 0.00 0.00
20260901074048 0 0.0 0.0 0.00 0.00 0.00
20260901074008 0 0.0 0.0 0.00 0.00 0.00
20260901073942 0 0.0 0.0 0.00 0.00 0.00
20260901073902 0 0.0 0.0 0.00 0.00 0.00
20260901073849 0 0.0 0.0 0.00 0.00 0.00
20260901073809 0 0.0 0.0 0.00 0.00 0.00
20260901073743 0 0.0 0.0 0.00 0.00 0.00
20260901073703 0 0.0 0.0 0.00 0.00 0.00
20260901073650 0 0.0 0.0 0.00 0.00 0.00
20260901073610 0 0.0 0.0 0.00 0.00 0.00
20260901073543 0 0.0 0.0 0.00 0.00 0.00
20260901073504 0 0.0 0.0 0.00 0.00 0.00
20260901073451 0 0.0 0.0 0.00 0.00 0.00
20260901073411 0 0.0 0.0 0.00 0.00 0.00
20260901073344 0 0.0 0.0 0.00 0.00 0.00
20260901073305 0 0.0 0.0 0.00 0.00 0.00
20260901073251 0 0.0 0.0 0.00 0.00 0.00
20260901073212 0 0.0 0.0 0.00 0.00 0.00
20260901073145 0 0.0 0.0 0.00 0.00 0.00
20260901073105 0 0.0 0.0 0.00 0.00 0.00
20260901073052 0 0.0 0.0 0.00 0.00 0.00
20260901073012 0 0.0 0.0 0.00 0.00 0.00
20260901072946 0 0.0 0.0 0.00 0.00 0.00
20260901072906 0 0.0 0.0 0.00 0.00 0.00
20260901072840 0 0.0 0.0 0.00 0.00 0.00
20260901072800 0 0.0 0.0 0.00 0.00 0.00
20260901072747 0 0.0 0.0 0.00 0.00 0.00
20260901072707 0 0.0 0.0 0.00 0.00 0.00
20260901072640 0 0.0 0.0 0.00 0.00 0.00
20260901072601 0 0.0 0.0 0.00 0.00 0.00
20260901072548 0 0.0 0.0 0.00 0.00 0.00
20260901072508 0 0.0 0.0 0.00 0.00 0.00
20260901072441 0 0.0 0.0 0.00 0.00 0.00
20260901072402 0 0.0 0.0 0.00 0.00 0.00
20260901072349 0 0.0 0.0 0.00 0.00 0.00
20260901072309 0 0.0 0.0 0.00 0.00 0.00
20260901072242 0 0.0 0.0 0.00 0.00 0.00
20260901072203 0 0.0 0.0 0.00 0.00 0.00
20260901072149 0 0.0 0.0 0.00 0.00 0.00
20260901072109 0 0.0 0.0 0.00 0.00 0.00
20260901072043 0 0.0 0.0 0.00 0.00 0.00
20260901072003 0 0.0 0.0 0.00 0.00 0.00
20260901071950 0 0.0 0.0 0.00 0.00 0.00
20260901071910 0 0.0 0.0 0.00 0.00 0.00
20260901071844 0 0.0 0.0 0.00 0.00 0.00
20260901071804 0 0.0 0.0 0.00 0.00 0.00
20260901071751 0 0.0 0.0 0.00 0.00 0.00
20260901071711 0 0.0 0.0 0.00 0.00 0.00
20260901071645 0 0.0 0.0 0.00 0.00 0.00
20260901071605 0 0.0 0.0 0.00 0.00 0.00
20260901071552 0 0.0 0.0 0.00 0.00 0.00
20260901071512 0 0.0 0.0 0.00 0.00 0.00
20260901071445 0 0.0 0.0 0.00 0.00 0.00
20260901071406 0 0.0 0.0 0.00 0.00 0.00
20260901071352 0 0.0 0.0 0.00 0.00 0.00
20260901071313 0 0.0 0.0 0.00 0.00 0.00
20260901071246 0 0.0 0.0 0.00 0.00 0.00
20260901071207 0 0.0 0.0 0.00 0.00 0.00
20260901071140 0 0.0 0.0 0.00 0.00 0.00
20260901071100 0 0.0 0.0 0.00 0.00 0.00
20260901071047 0 0.0 0.0 0.00 0.00 0.00
20260901071008 0 0.0 0.0 0.00 0.00 0.00
20260901070941 0 0.0 0.0 0.00 0.00 0.00
20260901070901 0 0.0 0.0 0.00 0.00 0.00
20260901070848 0 0.0 0.0 0.00 0.00 0.00
20260901070808 0 0.0 0.0 0.00 0.00 0.00
20260901070742 0 0.0 0.0 0.00 0.00 0.00
20260901070702 0 0.0 0.0 0.00 0.00 0.00
20260901070649 0 0.0 0.0 0.00 0.00 0.00
20260901070609 0 0.0 0.0 0.00 0.00 0.00
20260901070543 0 0.0 0.0 0.00 0.00 0.00
20260901070503 0 0.0 0.0 0.00 0.00 0.00
20260901070449 0 0.0 0.0 0.00 0.00 0.00
20260901070410 0 0.0 0.0 0.00 0.00 0.00
20260901070343 0 0.0 0.0 0.00 0.00 0.00
20260901070304 0 0.0 0.0 0.00 0.00 0.00
20260901070250 0 0.0 0.0 0.00 0.00 0.00
20260901070211 0 0.0 0.0 0.00 0.00 0.00
20260901070144 0 0.0 0.0 0.00 0.00 0.00
20260901070104 0 0.0 0.0 0.00 0.00 0.00
20260901070051 0 0.0 0.0 0.00 0.00 0.00
20260901070011 0 0.0 0.0 0.00 0.00 0.00
20260901065945 0 0.0 0.0 0.00 0.00 0.00
20260901065905 0 0.0 0.0 0.00 0.00 0.00
20260901065852 0 0.0 0.0 0.00 0.00 0.00
20260901065812 0 0.0 0.0 0.00 0.00 0.00
20260901065746 0 0.0 0.0 0.00 0.00 0.00
20260901065706 0 0.0 0.0 0.00 0.00 0.00
20260901065653 0 0.0 0.0 0.00 0.00 0.00
20260901065613 0 0.0 0.0 0.00 0.00 0.00
20260901065547 0 0.0 0.0 0.00 0.00 0.00
20260901065507 0 0.0 0.0 0.00 0.00 0.00
20260901065440 0 0.0 0.0 0.00 0.00 0.00
20260901065401 0 0.0 0.0 0.00 0.00 0.00
20260901065348 0 0.0 0.0 0.00 0.00 0.00
20260901065308 0 0.0 0.0 0.00 0.00 0.00
20260901065241 0 0.0 0.0 0.00 0.00 0.00
20260901065202 0 0.0 0.0 0.00 0.00 0.00
20260901065148 0 0.0 0.0 0.00 0.00 0.00
20260901065109 0 0.0 0.0 0.00 0.00 0.00
20260901065042 0 0.0 0.0 0.00 0.00 0.00
20260901065002 0 0.0 0.0 0.00 0.00 0.00
20260901064949 0 0.0 0.0 0.00 0.00 0.00
20260901064910 0 0.0 0.0 0.00 0.00 0.00
20260901064843 0 0.0 0.0 0.00 0.00 0.00
20260901064803 0 0.0 0.0 0.00 0.00 0.00
20260901064750 0 0.0 0.0 0.00 0.00 0.00
20260901064710 0 0.0 0.0 0.00 0.00 0.00
20260901064644 0 0.0 0.0 0.00 0.00 0.00
20260901064604 0 0.0 0.0 0.00 0.00 0.00
20260901064551 0 0.0 0.0 0.00 0.00 0.00
20260901064511 0 0.0 0.0 0.00 0.00 0.00
20260901064445 0 0.0 0.0 0.00 0.00 0.00
20260901064405 0 0.0 0.0 0.00 0.00 0.00
20260901064352 0 0.0 0.0 0.00 0.00 0.00
20260901064312 0 0.0 0.0 0.00 0.00 0.00
20260901064245 0 0.0 0.0 0.00 0.00 0.00
20260901064205 0 0.0 0.0 0.00 0.00 0.00
20260901064152 0 0.0 0.0 0.00 0.00 0.00
20260901064113 0 0.0 0.0 0.00 0.00 0.00
20260901064046 0 0.0 0.0 0.00 0.00 0.00
20260901064006 0 0.0 0.0 0.00 0.00 0.00
20260901063940 0 0.0 0.0 0.00 0.00 0.00
20260901063900 0 0.0 0.0 0.00 0.00 0.00
20260901063847 0 0.0 0.0 0.00 0.00 0.00
20260901063807 0 0.0 0.0 0.00 0.00 0.00
20260901063741 0 0.0 0.0 0.00 0.00 0.00
20260901063701 0 0.0 0.0 0.00 0.00 0.00
20260901063648 0 0.0 0.0 0.00 0.00 0.00
20260901063608 0 0.0 0.0 0.00 0.00 0.00
20260901063542 0 0.0 0.0 0.00 0.00 0.00
20260901063502 0 0.0 0.0 0.00 0.00 0.00
20260901063448 0 0.0 0.0 0.00 0.00 0.00
20260901063409 0 0.0 0.0 0.00 0.00 0.00
20260901063342 0 0.0 0.0 0.00 0.00 0.00
20260901063303 0 0.0 0.0 0.00 0.00 0.00
20260901063249 0 0.0 0.0 0.00 0.00 0.00
20260901063210 0 0.0 0.0 0.00 0.00 0.00
20260901063143 0 0.0 0.0 0.00 0.00 0.00
20260901063103 0 0.0 0.0 0.00 0.00 0.00
20260901063050 0 0.0 0.0 0.00 0.00 0.00
20260901063011 0 0.0 0.0 0.00 0.00 0.00
20260901062944 0 0.0 0.0 0.00 0.00 0.00
20260901062905 0 0.0 0.0 0.00 0.00 0.00
20260901062851 0 0.0 0.0 0.00 0.00 0.00
20260901062812 0 0.0 0.0 0.00 0.00 0.00
20260901062745 0 0.0 0.0 0.00 0.00 0.00
20260901062705 0 0.0 0.0 0.00 0.00 0.00
20260901062652 0 0.0 0.0 0.00 0.00 0.00
20260901062612 0 0.0 0.0 0.00 0.00 0.00
20260901062546 0 0.0 0.0 0.00 0.00 0.00
20260901062506 0 0.0 0.0 0.00 0.00 0.00
20260901062440 0 0.0 0.0 0.00 0.00 0.00
20260901062400 0 0.0 0.0 0.00 0.00 0.00
20260901062347 0 0.0 0.0 0.00 0.00 0.00
20260901062310 0 0.0 0.0 0.00 0.00 0.00
20260901062240 0 0.0 0.0 0.00 0.00 0.00
20260901062201 0 0.0 0.0 0.00 0.00 0.00
20260901062147 0 0.0 0.0 0.00 0.00 0.00
20260901062108 0 0.0 0.0 0.00 0.00 0.00
20260901062041 0 0.0 0.0 0.00 0.00 0.00
20260901062001 0 0.0 0.0 0.00 0.00 0.00
20260901061948 0 0.0 0.0 0.00 0.00 0.00
20260901061909 0 0.0 0.0 0.00 0.00 0.00
20260901061842 0 0.0 0.0 0.00 0.00 0.00
20260901061802 0 0.0 0.0 0.00 0.00 0.00
20260901061749 0 0.0 0.0 0.00 0.00 0.00
20260901061710 0 0.0 0.0 0.00 0.00 0.00
20260901061643 0 0.0 0.0 0.00 0.00 0.00
20260901061603 0 0.0 0.0 0.00 0.00 0.00
20260901061550 0 0.0 0.0 0.00 0.00 0.00
20260901061510 0 0.0 0.0 0.00 0.00 0.00
20260901061444 0 0.0 0.0 0.00 0.00 0.00
20260901061404 0 0.0 0.0 0.00 0.00 0.00
20260901061351 0 0.0 0.0 0.00 0.00 0.00
20260901061311 0 0.0 0.0 0.00 0.00 0.00
20260901061245 0 0.0 0.0 0.00 0.00 0.00
20260901061205 0 0.0 0.0 0.00 0.00 0.00
20260901061152 0 0.0 0.0 0.00 0.00 0.00
20260901061112 0 0.0 0.0 0.00 0.00 0.00
20260901061046 0 0.0 0.0 0.00 0.00 0.00
20260901061006 0 0.0 0.0 0.00 0.00 0.00
20260901060940 0 0.0 0.0 0.00 0.00 0.00
20260901060900 0 0.0 0.0 0.00 0.00 0.00
20260901060847 0 0.0 0.0 0.00 0.00 0.00
20260901060807 0 0.0 0.0 0.00 0.00 0.00
20260901060741 0 0.0 0.0 0.00 0.00 0.00
20260901060701 0 0.0 0.0 0.00 0.00 0.00
20260901060648 0 0.0 0.0 0.00 0.00 0.00
20260901060608 0 0.0 0.0 0.00 0.00 0.00
20260901060541 0 0.0 0.0 0.00 0.00 0.00
20260901060502 0 0.0 0.0 0.00 0.00 0.00
20260901060448 0 0.0 0.0 0.00 0.00 0.00
20260901060409 0 0.0 0.0 0.00 0.00 0.00
20260901060342 0 0.0 0.0 0.00 0.00 0.00
20260901060303 0 0.0 0.0 0.00 0.00 0.00
20260901060249 0 0.0 0.0 0.00 0.00 0.00
20260901060210 0 0.0 0.0 0.00 0.00 0.00
20260901060143 0 0.0 0.0 0.00 0.00 0.00
20260901060104 0 0.0 0.0 0.00 0.00 0.00
20260901060050 0 0.0 0.0 0.00 0.00 0.00
20260901060011 0 0.0 0.0 0.00 0.00 0.00
20260901055944 0 0.0 0.0 0.00 0.00 0.00
20260901055904 0 0.0 0.0 0.00 0.00 0.00
20260901055851 0 0.0 0.0 0.00 0.00 0.00
20260901055811 0 0.0 0.0 0.00 0.00 0.00
20260901055745 0 0.0 0.0 0.00 0.00 0.00
20260901055705 0 0.0 0.0 0.00 0.00 0.00
20260901055652 0 0.0 0.0 0.00 0.00 0.00
20260901055612 0 0.0 0.0 0.00 0.00 0.00
20260901055545 0 0.0 0.0 0.00 0.00 0.00
20260901055506 0 0.0 0.0 0.00 0.00 0.00
20260901055452 0 0.0 0.0 0.00 0.00 0.00
20260901055413 0 0.0 0.0 0.00 0.00 0.00
20260901055346 0 0.0 0.0 0.00 0.00 0.00
20260901055306 0 0.0 0.0 0.00 0.00 0.00
20260901055240 0 0.0 0.0 0.00 0.00 0.00
20260901055200 0 0.0 0.0 0.00 0.00 0.00
20260901055147 0 0.0 0.0 0.00 0.00 0.00
20260901055107 0 0.0 0.0 0.00 0.00 0.00
20260901055041 0 0.0 0.0 0.00 0.00 0.00
20260901055001 0 0.0 0.0 0.00 0.00 0.00
20260901054948 0 0.0 0.0 0.00 0.00 0.00
20260901054908 0 0.0 0.0 0.00 0.00 0.00
20260901054842 0 0.0 0.0 0.00 0.00 0.00
20260901054802 0 0.0 0.0 0.00 0.00 0.00
20260901054749 0 0.0 0.0 0.00 0.00 0.00
20260901054709 0 0.0 0.0 0.00 0.00 0.00
20260901054643 0 0.0 0.0 0.00 0.00 0.00
20260901054603 0 0.0 0.0 0.00 0.00 0.00
20260901054549 0 0.0 0.0 0.00 0.00 0.00
20260901054510 0 0.0 0.0 0.00 0.00 0.00
20260901054443 0 0.0 0.0 0.00 0.00 0.00
20260901054404 0 0.0 0.0 0.00 0.00 0.00
20260901054350 0 0.0 0.0 0.00 0.00 0.00
20260901054310 0 0.0 0.0 0.00 0.00 0.00
20260901054244 0 0.0 0.0 0.00 0.00 0.00
20260901054204 0 0.0 0.0 0.00 0.00 0.00
20260901054151 0 0.0 0.0 0.00 0.00 0.00
20260901054111 0 0.0 0.0 0.00 0.00 0.00
20260901054045 0 0.0 0.0 0.00 0.00 0.00
20260901054005 0 0.0 0.0 0.00 0.00 0.00
20260901053952 0 0.0 0.0 0.00 0.00 0.00
20260901053912 0 0.0 0.0 0.00 0.00 0.00
20260901053846 0 0.0 0.0 0.00 0.00 0.00
20260901053806 0 0.0 0.0 0.00 0.00 0.00
20260901053752 0 0.0 0.0 0.00 0.00 0.00
20260901053713 0 0.0 0.0 0.00 0.00 0.00
20260901053646 0 0.0 0.0 0.00 0.00 0.00
20260901053607 0 0.0 0.0 0.00 0.00 0.00
20260901053540 0 0.0 0.0 0.00 0.00 0.00
20260901053500 0 0.0 0.0 0.00 0.00 0.00
20260901053447 0 0.0 0.0 0.00 0.00 0.00
20260901053407 0 0.0 0.0 0.00 0.00 0.00
20260901053341 0 0.0 0.0 0.00 0.00 0.00
20260901053301 0 0.0 0.0 0.00 0.00 0.00
20260901053248 0 0.0 0.0 0.00 0.00 0.00
20260901053208 0 0.0 0.0 0.00 0.00 0.00
20260901053141 0 0.0 0.0 0.00 0.00 0.00
20260901053102 0 0.0 0.0 0.00 0.00 0.00
20260901053049 0 0.0 0.0 0.00 0.00 0.00
20260901053009 0 0.0 0.0 0.00 0.00 0.00
20260901052942 0 0.0 0.0 0.00 0.00 0.00
20260901052903 0 0.0 0.0 0.00 0.00 0.00
20260901052850 0 0.0 0.0 0.00 0.00 0.00
20260901052810 0 0.0 0.0 0.00 0.00 0.00
20260901052743 0 0.0 0.0 0.00 0.00 0.00
20260901052705 0 0.0 0.0 0.00 0.50 0.00
20260901052703 0 0.0 0.0 0.00 0.00 0.00
20260901052650 0 0.0 0.0 0.00 0.00 0.00
20260901052610 0 0.0 0.0 0.00 0.00 0.00
20260901052544 0 0.0 0.0 0.00 0.00 0.00
20260901052504 0 0.0 0.0 0.00 0.00 0.00
20260901052451 0 0.0 0.0 0.00 0.00 0.00
20260901052411 0 0.0 0.0 0.00 0.00 0.00
20260901052345 0 0.0 0.0 0.00 0.00 0.00
20260901052307 0 0.0 0.0 0.00 0.00 0.00
20260901052252 0 0.0 0.0 0.00 0.00 0.00
20260901052212 0 0.0 0.0 0.00 0.00 0.00
20260901052146 0 0.0 0.0 0.00 0.00 0.00
20260901052106 0 0.0 0.0 0.00 0.00 0.00
20260901052040 0 0.0 0.0 0.00 0.00 0.00
20260901052000 0 0.0 0.0 0.00 0.00 0.00
20260901051947 0 0.0 0.0 0.00 0.00 0.00
20260901051907 0 0.0 0.0 0.00 0.00 0.00
20260901051841 0 0.0 0.0 0.00 0.00 0.00
20260901051801 0 0.0 0.0 0.00 0.00 0.00
20260901051748 0 0.0 0.0 0.00 0.00 0.00
20260901051708 0 0.0 0.0 0.00 0.00 0.00
20260901051641 0 0.0 0.0 0.00 0.00 0.00
20260901051602 0 0.0 0.0 0.00 0.00 0.00
20260901051548 0 0.0 0.0 0.00 0.00 0.00
20260901051508 0 0.0 0.0 0.00 0.00 0.00
20260901051442 0 0.0 0.0 0.00 0.00 0.00
20260901051402 0 0.0 0.0 0.00 0.00 0.00
20260901051349 0 0.0 0.0 0.00 0.00 0.00
20260901051309 0 0.0 0.0 0.00 0.00 0.00
20260901051245 0 0.0 0.0 0.00 0.00 0.00
20260901051203 0 0.0 0.0 0.00 0.00 0.00
20260901051150 0 0.0 0.0 0.00 0.00 0.00
20260901051110 0 0.0 0.0 0.00 0.00 0.00
20260901051043 0 0.0 0.0 0.00 0.00 0.00
20260901051004 0 0.0 0.0 0.00 0.00 0.00
20260901050950 0 0.0 0.0 0.00 0.00 0.00
20260901050911 0 0.0 0.0 0.00 0.00 0.00
20260901050844 0 0.0 0.0 0.00 0.00 0.00
20260901050805 0 0.0 0.0 0.00 0.00 0.00
20260901050751 0 0.0 0.0 0.00 0.00 0.00
20260901050711 0 0.0 0.0 0.00 0.00 0.00
20260901050645 0 0.0 0.0 0.00 0.00 0.00
20260901050605 0 0.0 0.0 0.00 0.00 0.00
20260901050552 0 0.0 0.0 0.00 0.00 0.00
20260901050512 0 0.0 0.0 0.00 0.00 0.00
20260901050446 0 0.0 0.0 0.00 0.00 0.00
20260901050406 0 0.0 0.0 0.00 0.00 0.00
20260901050353 0 0.0 0.0 0.00 0.00 0.00
20260901050313 0 0.0 0.0 0.00 0.00 0.00
20260901050247 0 0.0 0.0 0.00 0.00 0.00
20260901050207 0 0.0 0.0 0.00 0.00 0.00
20260901050140 0 0.0 0.0 0.00 0.00 0.00
20260901050101 0 0.0 0.0 0.00 0.00 0.00
20260901050048 0 0.0 0.0 0.00 0.00 0.00
20260901050008 0 0.0 0.0 0.00 0.00 0.00
20260901045941 0 0.0 0.0 0.00 0.00 0.00
20260901045902 0 0.0 0.0 0.00 0.00 0.00
20260901045848 0 0.0 0.0 0.00 0.00 0.00
20260901045809 0 0.0 0.0 0.00 0.00 0.00
20260901045742 0 0.0 0.0 0.00 0.00 0.00
20260901045703 0 0.0 0.0 0.00 0.00 0.00
20260901045649 0 0.0 0.0 0.00 0.00 0.00
20260901045610 0 0.0 0.0 0.00 0.00 0.00
20260901045543 0 0.0 0.0 0.00 0.00 0.00
20260901045503 0 0.0 0.0 0.00 0.00 0.00
20260901045450 0 0.0 0.0 0.00 0.00 0.00
20260901045410 0 0.0 0.0 0.00 0.00 0.00
20260901045344 0 0.0 0.0 0.00 0.00 0.00
20260901045306 0 0.0 0.0 0.00 0.00 0.00
20260901045251 0 0.0 0.0 0.00 0.00 0.00
20260901045211 0 0.0 0.0 0.00 0.00 0.00
20260901045145 0 0.0 0.0 0.00 0.00 0.00
20260901045105 0 0.0 0.0 0.00 0.00 0.00
20260901045051 0 0.0 0.0 0.00 0.00 0.00
20260901045012 0 0.0 0.0 0.00 0.00 0.00
20260901044945 0 0.0 0.0 0.00 0.00 0.00
20260901044906 0 0.0 0.0 0.00 0.00 0.00
20260901044852 0 0.0 0.0 0.00 0.00 0.00
20260901044813 0 0.0 0.0 0.00 0.00 0.00
20260901044746 0 0.0 0.0 0.00 0.00 0.00
20260901044706 0 0.0 0.0 0.00 0.00 0.00
20260901044640 0 0.0 0.0 0.00 0.00 0.00
20260901044600 0 0.0 0.0 0.00 0.00 0.00
20260901044547 0 0.0 0.0 0.00 0.00 0.00
20260901044507 0 0.0 0.0 0.00 0.00 0.00
20260901044441 0 0.0 0.0 0.00 0.00 0.00
20260901044401 0 0.0 0.0 0.00 0.00 0.00
20260901044348 0 0.0 0.0 0.00 0.00 0.00
20260901044308 0 0.0 0.0 0.00 0.00 0.00
20260901044242 0 0.0 0.0 0.00 0.00 0.00
20260901044202 0 0.0 0.0 0.00 0.00 0.00
20260901044149 0 0.0 0.0 0.00 0.00 0.00
20260901044109 0 0.0 0.0 0.00 0.00 0.00
20260901044043 0 0.0 0.0 0.00 0.00 0.00
20260901044003 0 0.0 0.0 0.00 0.00 0.00
20260901043950 0 0.0 0.0 0.00 0.00 0.00
20260901043910 0 0.0 0.0 0.00 0.00 0.00
20260901043844 0 0.0 0.0 0.00 0.00 0.00
20260901043804 0 0.0 0.0 0.00 0.00 0.00
20260901043751 0 0.0 0.0 0.00 0.00 0.00
20260901043711 0 0.0 0.0 0.00 0.00 0.00
20260901043644 0 0.0 0.0 0.00 0.00 0.00
20260901043605 0 0.0 0.0 0.00 0.00 0.00
20260901043551 0 0.0 0.0 0.00 0.00 0.00
20260901043512 0 0.0 0.0 0.00 0.00 0.00
20260901043445 0 0.0 0.0 0.00 0.00 0.00
20260901043406 0 0.0 0.0 0.00 0.00 0.00
20260901043353 0 0.0 0.0 0.00 0.00 0.00
20260901043313 0 0.0 0.0 0.00 0.00 0.00
20260901043246 0 0.0 0.0 0.00 0.00 0.00
20260901043207 0 0.0 0.0 0.00 0.00 0.00
20260901043140 0 0.0 0.0 0.00 0.00 0.00
20260901043100 0 0.0 0.0 0.00 0.00 0.00
20260901043047 0 0.0 0.0 0.00 0.00 0.00
20260901043007 0 0.0 0.0 0.00 0.00 0.00
20260901042941 0 0.0 0.0 0.00 0.00 0.00
20260901042901 0 0.0 0.0 0.00 0.00 0.00
20260901042848 0 0.0 0.0 0.00 0.00 0.00
20260901042808 0 0.0 0.0 0.00 0.00 0.00
20260901042742 0 0.0 0.0 0.00 0.00 0.00
20260901042702 0 0.0 0.0 0.00 0.00 0.00
20260901042649 0 0.0 0.0 0.00 0.00 0.00
20260901042609 0 0.0 0.0 0.00 0.00 0.00
20260901042542 0 0.0 0.0 0.00 0.00 0.00
20260901042503 0 0.0 0.0 0.00 0.00 0.00
20260901042450 0 0.0 0.0 0.00 0.00 0.00
20260901042410 0 0.0 0.0 0.00 0.00 0.00
20260901042343 0 0.0 0.0 0.00 0.00 0.00
20260901042306 0 0.0 0.0 0.00 0.00 0.00
20260901042250 0 0.0 0.0 0.00 0.00 0.00
20260901042211 0 0.0 0.0 0.00 0.00 0.00
20260901042144 0 0.0 0.0 0.00 0.00 0.00
20260901042104 0 0.0 0.0 0.00 0.00 0.00
20260901042051 0 0.0 0.0 0.00 0.00 0.00
20260901042012 0 0.0 0.0 0.00 0.00 0.00
20260901041945 0 0.0 0.0 0.00 0.00 0.00
20260901041905 0 0.0 0.0 0.00 0.00 0.00
20260901041852 0 0.0 0.0 0.00 0.00 0.00
20260901041812 0 0.0 0.0 0.00 0.00 0.00
20260901041746 0 0.0 0.0 0.00 0.00 0.00
20260901041706 0 0.0 0.0 0.00 0.00 0.00
20260901041640 0 0.0 0.0 0.00 0.00 0.00
20260901041600 0 0.0 0.0 0.00 0.00 0.00
20260901041547 0 0.0 0.0 0.00 0.00 0.00
20260901041507 0 0.0 0.0 0.00 0.00 0.00
20260901041441 0 0.0 0.0 0.00 0.00 0.00
20260901041401 0 0.0 0.0 0.00 0.00 0.00
20260901041348 0 0.0 0.0 0.00 0.00 0.00
20260901041308 0 0.0 0.0 0.00 0.00 0.00
20260901041241 0 0.0 0.0 0.00 0.00 0.00
20260901041202 0 0.0 0.0 0.00 0.00 0.00
20260901041148 0 0.0 0.0 0.00 0.00 0.00
20260901041109 0 0.0 0.0 0.00 0.00 0.00
20260901041042 0 0.0 0.0 0.00 0.00 0.00
20260901041002 0 0.0 0.0 0.00 0.00 0.00
20260901040949 0 0.0 0.0 0.00 0.00 0.00
20260901040909 0 0.0 0.0 0.00 0.00 0.00
20260901040843 0 0.0 0.0 0.00 0.00 0.00
20260901040803 0 0.0 0.0 0.00 0.00 0.00
20260901040750 0 0.0 0.0 0.00 0.00 0.00
20260901040710 0 0.0 0.0 0.00 0.00 0.00
20260901040644 0 0.0 0.0 0.00 0.00 0.00
20260901040604 0 0.0 0.0 0.00 0.00 0.00
20260901040551 0 0.0 0.0 0.00 0.00 0.00
20260901040511 0 0.0 0.0 0.00 0.00 0.00
20260901040445 0 0.0 0.0 0.00 0.00 0.00
20260901040405 0 0.0 0.0 0.00 0.00 0.00
20260901040352 0 0.0 0.0 0.00 0.00 0.00
20260901040312 0 0.0 0.0 0.00 0.00 0.00
20260901040246 0 0.0 0.0 0.00 0.00 0.00
20260901040206 0 0.0 0.0 0.00 0.00 0.00
20260901040153 0 0.0 0.0 0.00 0.00 0.00
20260901040113 0 0.0 0.0 0.00 0.00 0.00
20260901040046 0 0.0 0.0 0.00 0.00 0.00
20260901040007 0 0.0 0.0 0.00 0.00 0.00
20260901035940 0 0.0 0.0 0.00 0.00 0.00
20260901035901 0 0.0 0.0 0.00 0.00 0.00
20260901035848 0 0.0 0.0 0.00 0.00 0.00
20260901035808 0 0.0 0.0 0.00 0.00 0.00
20260901035741 0 0.0 0.0 0.00 0.00 0.00
20260901035701 0 0.0 0.0 0.00 0.00 0.00
20260901035648 0 0.0 0.0 0.00 0.00 0.00
20260901035608 0 0.0 0.0 0.00 0.00 0.00
20260901035542 0 0.0 0.0 0.00 0.00 0.00
20260901035503 0 0.0 0.0 0.00 0.00 0.00
20260901035449 0 0.0 0.0 0.00 0.00 0.00
20260901035409 0 0.0 0.0 0.00 0.00 0.00
20260901035343 0 0.0 0.0 0.00 0.00 0.00
20260901035305 0 0.0 0.0 0.00 0.00 0.00
20260901035250 0 0.0 0.0 0.00 0.00 0.00
20260901035210 0 0.0 0.0 0.00 0.00 0.00
20260901035144 0 0.0 0.0 0.00 0.00 0.00
20260901035104 0 0.0 0.0 0.00 0.00 0.00
20260901035051 0 0.0 0.0 0.00 0.00 0.00
20260901035011 0 0.0 0.0 0.00 0.00 0.00
20260901034944 0 0.0 0.0 0.00 0.00 0.00
20260901034905 0 0.0 0.0 0.00 0.00 0.00
20260901034851 0 0.0 0.0 0.00 0.00 0.00
20260901034812 0 0.0 0.0 0.00 0.00 0.00
20260901034745 0 0.0 0.0 0.00 0.00 0.00
20260901034706 0 0.0 0.0 0.00 0.00 0.00
20260901034653 0 0.0 0.0 0.00 0.00 0.00
20260901034613 0 0.0 0.0 0.00 0.00 0.00
20260901034546 0 0.0 0.0 0.00 0.00 0.00
20260901034507 0 0.0 0.0 0.00 0.00 0.00
20260901034440 0 0.0 0.0 0.00 0.00 0.00
20260901034400 0 0.0 0.0 0.00 0.00 0.00
20260901034347 0 0.0 0.0 0.00 0.00 0.00
20260901034307 0 0.0 0.0 0.00 0.00 0.00
20260901034241 0 0.0 0.0 0.00 0.00 0.00
20260901034201 0 0.0 0.0 0.00 0.00 0.00
20260901034148 0 0.0 0.0 0.00 0.00 0.00
20260901034108 0 0.0 0.0 0.00 0.00 0.00
20260901034042 0 0.0 0.0 0.00 0.00 0.00
20260901034002 0 0.0 0.0 0.00 0.00 0.00
20260901033949 0 0.0 0.0 0.00 0.00 0.00
20260901033909 0 0.0 0.0 0.00 0.00 0.00
20260901033842 0 0.0 0.0 0.00 0.00 0.00
20260901033803 0 0.0 0.0 0.00 0.00 0.00
20260901033750 0 0.0 0.0 0.00 0.00 0.00
20260901033710 0 0.0 0.0 0.00 0.00 0.00
20260901033644 0 0.0 0.0 0.00 0.00 0.00
20260901033604 0 0.0 0.0 0.00 0.00 0.00
20260901033551 0 0.0 0.0 0.00 0.00 0.00
20260901033511 0 0.0 0.0 0.00 0.00 0.00
20260901033445 0 0.0 0.0 0.00 0.00 0.00
20260901033405 0 0.0 0.0 0.00 0.00 0.00
20260901033352 0 0.0 0.0 0.00 0.00 0.00
20260901033312 0 0.0 0.0 0.00 0.00 0.00
20260901033246 0 0.0 0.0 0.00 0.00 0.00
20260901033206 0 0.0 0.0 0.00 0.00 0.00
20260901033140 0 0.0 0.0 0.00 0.00 0.00
20260901033100 0 0.0 0.0 0.00 0.00 0.00
20260901033047 0 0.0 0.0 0.00 0.00 0.00
20260901033007 0 0.0 0.0 0.00 0.00 0.00
20260901032941 0 0.0 0.0 0.00 0.00 0.00
20260901032901 0 0.0 0.0 0.00 0.00 0.00
20260901032848 0 0.0 0.0 0.00 0.00 0.00
20260901032808 0 0.0 0.0 0.00 0.00 0.00
20260901032741 0 0.0 0.0 0.00 0.00 0.00
20260901032701 0 0.0 0.0 0.00 0.00 0.00
20260901032648 0 0.0 0.0 0.00 0.00 0.00
20260901032609 0 0.0 0.0 0.00 0.00 0.00
20260901032542 0 0.0 0.0 0.00 0.00 0.00
20260901032502 0 0.0 0.0 0.00 0.00 0.00
20260901032449 0 0.0 0.0 0.00 0.00 0.00
20260901032409 0 0.0 0.0 0.00 0.00 0.00
20260901032343 0 0.0 0.0 0.00 0.00 0.00
20260901032306 0 0.0 0.0 0.00 0.00 0.00
20260901032250 0 0.0 0.0 0.00 0.00 0.00
20260901032210 0 0.0 0.0 0.00 0.00 0.00
20260901032144 0 0.0 0.0 0.00 0.00 0.00
20260901032104 0 0.0 0.0 0.00 0.00 0.00
20260901032051 0 0.0 0.0 0.00 0.00 0.00
20260901032011 0 0.0 0.0 0.00 0.00 0.00
20260901031945 0 0.0 0.0 0.00 0.00 0.00
20260901031905 0 0.0 0.0 0.00 0.00 0.00
20260901031852 0 0.0 0.0 0.00 0.00 0.00
20260901031812 0 0.0 0.0 0.00 0.00 0.00
20260901031746 0 0.0 0.0 0.00 0.00 0.00
20260901031706 0 0.0 0.0 0.00 0.00 0.00
20260901031653 0 0.0 0.0 0.00 0.00 0.00
20260901031613 0 0.0 0.0 0.00 0.00 0.00
20260901031547 0 0.0 0.0 0.00 0.00 0.00
20260901031507 0 0.0 0.0 0.00 0.00 0.00
20260901031440 0 0.0 0.0 0.00 0.00 0.00
20260901031401 0 0.0 0.0 0.00 0.00 0.00
20260901031348 0 0.0 0.0 0.00 0.00 0.00
20260901031308 0 0.0 0.0 0.00 0.00 0.00
20260901031241 0 0.0 0.0 0.00 0.00 0.00
20260901031202 0 0.0 0.0 0.00 0.00 0.00
20260901031148 0 0.0 0.0 0.00 0.00 0.00
20260901031109 0 0.0 0.0 0.00 0.00 0.00
20260901031042 0 0.0 0.0 0.00 0.00 0.00
20260901031002 0 0.0 0.0 0.00 0.00 0.00
20260901030949 0 0.0 0.0 0.00 0.00 0.00
20260901030909 0 0.0 0.0 0.00 0.00 0.00
20260901030843 0 0.0 0.0 0.00 0.00 0.00
20260901030803 0 0.0 0.0 0.00 0.00 0.00
20260901030750 0 0.0 0.0 0.00 0.00 0.00
20260901030711 0 0.0 0.0 0.00 0.00 0.00
20260901030644 0 0.0 0.0 0.00 0.00 0.00
20260901030604 0 0.0 0.0 0.00 0.00 0.00
20260901030551 0 0.0 0.0 0.00 0.00 0.00
20260901030511 0 0.0 0.0 0.00 0.00 0.00
20260901030445 0 0.0 0.0 0.00 0.00 0.00
20260901030405 0 0.0 0.0 0.00 0.00 0.00
20260901030352 0 0.0 0.0 0.00 0.00 0.00
20260901030312 0 0.0 0.0 0.00 0.00 0.00
20260901030246 0 0.0 0.0 0.00 0.00 0.00
20260901030206 0 0.0 0.0 0.00 0.00 0.00
20260901030152 0 0.0 0.0 0.00 0.00 0.00
20260901030113 0 0.0 0.0 0.00 0.00 0.00
20260901030046 0 0.0 0.0 0.00 0.00 0.00
20260901030006 0 0.0 0.0 0.00 0.00 0.00
20260901025940 0 0.0 0.0 0.00 0.00 0.00
20260901025900 0 0.0 0.0 0.00 0.00 0.00
20260901025847 0 0.0 0.0 0.00 0.00 0.00
20260901025807 0 0.0 0.0 0.00 0.00 0.00
20260901025741 0 0.0 0.0 0.00 0.00 0.00
20260901025701 0 0.0 0.0 0.00 0.00 0.00
20260901025648 0 0.0 0.0 0.00 0.00 0.00
20260901025608 0 0.0 0.0 0.00 0.00 0.00
20260901025541 0 0.0 0.0 0.00 0.00 0.00
20260901025502 0 0.0 0.0 0.00 0.00 0.00
20260901025448 0 0.0 0.0 0.00 0.00 0.00
20260901025409 0 0.0 0.0 0.00 0.00 0.00
20260901025342 0 0.0 0.0 0.00 0.00 0.00
20260901025305 0 0.0 0.0 0.00 0.00 0.00
20260901025249 0 0.0 0.0 0.00 0.00 0.00
20260901025209 0 0.0 0.0 0.00 0.00 0.00
20260901025143 0 0.0 0.0 0.00 0.00 0.00
20260901025103 0 0.0 0.0 0.00 0.00 0.00
20260901025050 0 0.0 0.0 0.00 0.00 0.00
20260901025010 0 0.0 0.0 0.00 0.00 0.00
20260901024944 0 0.0 0.0 0.00 0.00 0.00